GW6757 Weather Reports


time (UTC)temp
C
wind
direction
speed
KPH
gust
KPH
rain 1hr
cm
rain 24hr
cm
rain mn
cm
humidity
%
barometer
mb
20260503034226 26 111 3.2 3.2 0.00 0.00 0.00 92 1016.8
20260503033724 26 52 3.2 3.2 0.00 0.00 0.00 92 1016.9
20260503033221 26 82 3.2 4.8 0.00 0.00 0.00 92 1016.7
20260503032719 26 91 3.2 4.8 0.00 0.00 0.00 92 1016.7
20260503032218 26 78 3.2 4.8 0.00 0.00 0.00 92 1016.8
20260503031714 26 88 1.6 3.2 0.00 0.00 0.00 91 1016.8
20260503031213 26 70 3.2 3.2 0.00 0.00 0.00 91 1017.0
20260503030708 26 50 3.2 4.8 0.00 0.00 0.00 91 1017.0
20260503030205 26 75 1.6 3.2 0.00 0.00 0.00 91 1017.0
20260503025702 25 67 3.2 3.2 0.00 0.00 0.00 91 1016.9
20260503025200 25 72 1.6 3.2 0.00 0.00 0.00 91 1016.9
20260503024655 25 100 3.2 3.2 0.00 0.00 0.00 91 1016.8
20260503024153 25 97 3.2 4.8 0.00 0.00 0.00 91 1016.9
20260503023650 25 112 1.6 3.2 0.00 0.00 0.00 91 1016.7
20260503023147 25 101 1.6 3.2 0.00 0.00 0.00 90 1016.8
20260503022643 25 119 1.6 3.2 0.00 0.00 0.00 90 1016.7
20260503022142 25 106 1.6 3.2 0.00 0.00 0.00 90 1016.5
20260503021640 25 100 1.6 3.2 0.00 0.00 0.00 90 1016.5
20260503021136 25 104 3.2 3.2 0.00 0.00 0.00 90 1016.5
20260503020633 25 96 1.6 3.2 0.00 0.00 0.00 90 1016.5
20260503020131 25 98 1.6 3.2 0.00 0.00 0.00 89 1016.6
20260503015628 25 88 3.2 3.2 0.00 0.00 0.00 89 1016.3
20260503015125 25 99 1.6 3.2 0.00 0.00 0.00 89 1016.3
20260503014620 25 86 0.0 3.2 0.00 0.00 0.00 89 1016.4
20260503014118 25 101 1.6 4.8 0.00 0.00 0.00 89 1016.2
20260503013615 25 104 3.2 3.2 0.00 0.00 0.00 89 1016.1
20260503013113 25 89 0.0 4.8 0.00 0.00 0.00 89 1016.1
20260503012610 25 107 0.0 3.2 0.00 0.00 0.00 88 1016.0
20260503012107 25 58 1.6 3.2 0.00 0.00 0.00 88 1016.0
20260503011603 25 116 1.6 3.2 0.00 0.00 0.00 88 1015.8
20260503011101 25 118 3.2 4.8 0.00 0.00 0.00 88 1015.9
20260503010556 25 92 0.0 4.8 0.00 0.00 0.00 88 1015.7
20260503010054 25 111 3.2 3.2 0.00 0.00 0.00 87 1015.9
20260503005551 25 98 1.6 4.8 0.00 0.00 0.00 87 1015.8
20260503005049 25 69 1.6 4.8 0.00 0.00 0.00 87 1015.6
20260503004544 26 133 3.2 4.8 0.00 0.00 0.00 87 1015.6
20260503004043 26 98 3.2 4.8 0.00 0.00 0.00 86 1015.4
20260503003539 26 127 1.6 4.8 0.00 0.00 0.00 86 1015.3
20260503003037 26 119 3.2 3.2 0.00 0.00 0.00 85 1015.4
20260503002533 26 128 1.6 3.2 0.00 0.00 0.00 85 1015.2
20260503002030 26 99 3.2 3.2 0.00 0.00 0.00 85 1015.2
20260503001526 26 121 3.2 3.2 0.00 0.00 0.00 84 1015.1
20260503001024 26 104 1.6 4.8 0.00 0.00 0.00 84 1014.9
20260503000521 26 109 3.2 4.8 0.00 0.00 0.00 84 1014.9
20260503000018 26 100 3.2 4.8 0.00 0.00 0.00 83 1014.8
20260502235514 26 102 3.2 4.8 0.00 0.00 0.00 83 1014.9
20260502235013 26 121 3.2 3.2 0.00 0.00 0.00 82 1014.6
20260502234509 26 92 3.2 4.8 0.00 0.00 0.00 82 1014.5
20260502234006 26 114 3.2 4.8 0.00 0.00 0.00 81 1014.5
20260502233506 27 124 4.8 4.8 0.00 0.00 0.00 81 1014.7
20260502233004 27 100 3.2 6.4 0.00 0.00 0.00 81 1014.5
20260502232500 27 104 3.2 4.8 0.00 0.00 0.00 80 1014.3
20260502231957 27 92 3.2 3.2 0.00 0.00 0.00 80 1014.2
20260502231454 27 132 4.8 6.4 0.00 0.00 0.00 79 1014.0
20260502230952 27 107 1.6 8.0 0.00 0.00 0.00 79 1014.0
20260502230450 28 91 3.2 8.0 0.00 0.00 0.00 78 1014.0
20260502225948 28 95 6.4 6.4 0.00 0.00 0.00 77 1013.9
20260502225443 28 125 6.4 9.7 0.00 0.00 0.00 77 1013.9
20260502224941 28 104 4.8 11.3 0.00 0.00 0.00 76 1013.8
20260502224437 28 98 3.2 8.0 0.00 0.00 0.00 76 1013.7
20260502223933 29 107 6.4 9.7 0.00 0.00 0.00 76 1013.8
20260502223432 29 99 4.8 9.7 0.00 0.00 0.00 75 1013.9
20260502222930 29 160 4.8 9.7 0.00 0.00 0.00 74 1013.7
20260502222427 29 136 9.7 11.3 0.00 0.00 0.00 72 1013.6
20260502221922 30 122 3.2 6.4 0.00 0.00 0.00 73 1013.7
20260502221419 30 116 8.0 8.0 0.00 0.00 0.00 73 1013.7
20260502220916 30 132 3.2 11.3 0.00 0.00 0.00 73 1013.7
20260502220411 30 140 3.2 12.9 0.00 0.00 0.00 72 1013.5
20260502215908 30 126 1.6 9.7 0.00 0.00 0.00 73 1013.5
20260502215406 30 194 8.0 11.3 0.00 0.00 0.00 72 1013.5
20260502214903 30 192 1.6 8.0 0.00 0.00 0.00 73 1013.5
20260502214359 30 180 1.6 11.3 0.00 0.00 0.00 73 1013.4
20260502213856 30 186 3.2 9.7 0.00 0.00 0.00 72 1013.4
20260502213353 30 201 4.8 11.3 0.00 0.00 0.00 72 1013.2
20260502212852 30 141 8.0 11.3 0.00 0.00 0.00 73 1013.2
20260502212351 30 160 8.0 12.9 0.00 0.00 0.00 72 1013.3
20260502211847 30 168 9.7 12.9 0.00 0.00 0.00 72 1013.2
20260502211343 30 155 4.8 9.7 0.00 0.00 0.00 73 1013.3
20260502210841 30 190 8.0 12.9 0.00 0.00 0.00 72 1013.2
20260502210337 30 184 4.8 9.7 0.00 0.00 0.00 72 1013.2
20260502205835 30 197 8.0 14.5 0.00 0.00 0.00 72 1013.3
20260502205331 30 184 6.4 14.5 0.00 0.00 0.00 72 1013.2
20260502204828 30 169 8.0 11.3 0.00 0.00 0.00 72 1013.2
20260502204325 30 167 9.7 11.3 0.00 0.00 0.00 71 1013.3
20260502203822 30 141 4.8 9.7 0.00 0.00 0.00 72 1013.3
20260502203320 30 172 3.2 17.7 0.00 0.00 0.00 71 1013.1
20260502202820 30 170 4.8 12.9 0.00 0.00 0.00 71 1013.3
20260502202318 30 205 11.3 12.9 0.00 0.00 0.00 71 1013.3
20260502201816 30 178 11.3 14.5 0.00 0.00 0.00 70 1013.2
20260502201312 30 163 6.4 17.7 0.00 0.00 0.00 70 1013.1
20260502200808 30 179 1.6 17.7 0.00 0.00 0.00 71 1013.3
20260502200304 30 114 3.2 14.5 0.00 0.00 0.00 71 1013.3
20260502195803 30 203 14.5 17.7 0.00 0.00 0.00 71 1013.4
20260502195259 31 173 11.3 17.7 0.00 0.00 0.00 70 1013.4
20260502194755 31 122 4.8 16.1 0.00 0.00 0.00 70 1013.4
20260502194253 31 189 8.0 14.5 0.00 0.00 0.00 70 1013.3
20260502193748 31 208 9.7 14.5 0.00 0.00 0.00 71 1013.6
20260502193246 30 183 6.4 17.7 0.00 0.00 0.00 70 1013.5
20260502192746 30 137 4.8 17.7 0.00 0.00 0.00 72 1013.5
20260502192244 31 186 6.4 19.3 0.00 0.00 0.00 70 1013.6
20260502191740 30 183 8.0 16.1 0.00 0.00 0.00 71 1013.6
20260502191238 30 215 11.3 17.7 0.00 0.00 0.00 70 1013.6
20260502190735 31 172 11.3 17.7 0.00 0.00 0.00 71 1013.6
20260502190233 31 177 11.3 19.3 0.00 0.00 0.00 71 1013.5
20260502185732 31 190 6.4 19.3 0.00 0.00 0.00 71 1013.4
20260502185229 31 104 6.4 16.1 0.00 0.00 0.00 71 1013.6
20260502184725 31 184 8.0 17.7 0.00 0.00 0.00 71 1013.7
20260502184221 31 143 11.3 16.1 0.00 0.00 0.00 71 1013.8
20260502183718 31 152 8.0 17.7 0.00 0.00 0.00 70 1013.9
20260502183214 31 157 3.2 6.4 0.00 0.00 0.00 72 1014.0
20260502182709 31 171 9.7 14.5 0.00 0.00 0.00 72 1014.0
20260502182205 30 141 6.4 11.3 0.00 0.00 0.00 74 1014.1
20260502181703 30 135 9.7 14.5 0.00 0.00 0.00 75 1014.1
20260502181202 30 132 9.7 17.7 0.00 0.00 0.00 71 1014.2
20260502180658 30 107 1.6 12.9 0.00 0.00 0.00 73 1014.2
20260502180155 30 145 4.8 9.7 0.00 0.00 0.00 73 1014.2
20260502170120 30 112 8.0 14.5 0.00 0.00 0.00 73 1014.6
20260502164107 30 119 9.7 24.1 0.00 0.00 0.00 70 1014.9
20260502163603 30 109 3.2 20.9 0.00 0.00 0.00 72 1015.0
20260502163059 30 153 3.2 11.3 0.00 0.00 0.00 74 1014.8
20260502162556 29 132 11.3 14.5 0.00 0.00 0.00 73 1015.0
20260502162053 28 134 6.4 16.1 0.00 0.00 0.00 73 1015.0
20260502161550 29 77 4.8 17.7 0.00 0.00 0.00 72 1014.9
20260502161048 29 132 14.5 17.7 0.00 0.00 0.00 72 1015.2
20260502160545 29 126 4.8 17.7 0.00 0.00 0.00 74 1015.0
20260502151953 27 124 19.3 22.5 0.00 0.00 0.00 80 1015.5
20260502151449 27 118 12.9 17.7 0.00 0.00 0.00 81 1015.5
20260502150946 27 119 8.0 20.9 0.00 0.00 0.00 81 1015.5
20260502150444 27 105 9.7 24.1 0.00 0.00 0.00 81 1015.3
20260502130329 27 116 17.7 19.3 0.00 0.00 0.00 82 1015.5
20260502123814 27 101 11.3 20.9 0.00 0.00 0.00 84 1015.5
20260502123311 27 102 9.7 17.7 0.00 0.00 0.00 85 1015.4
20260502122808 27 104 9.7 20.9 0.00 0.00 0.00 85 1015.3
20260502122306 27 110 9.7 17.7 0.00 0.00 0.00 86 1015.1
20260502121803 27 96 3.2 16.1 0.00 0.00 0.00 86 1015.3
20260502121300 27 130 6.4 9.7 0.00 0.00 0.00 86 1014.9
20260502120757 27 84 3.2 19.3 0.00 0.00 0.00 86 1015.1
20260502120253 27 107 6.4 9.7 0.00 0.00 0.00 87 1014.9
20260502115751 27 97 8.0 14.5 0.00 0.00 0.00 87 1015.1
20260502115248 26 129 9.7 12.9 0.00 0.00 0.00 88 1015.0
20260502114743 26 120 9.7 20.9 0.00 0.00 0.00 88 1014.9
20260502114241 26 145 8.0 12.9 0.00 0.00 0.00 88 1015.2
20260502113738 26 124 6.4 11.3 0.00 0.00 0.00 89 1015.1
20260502113236 26 118 8.0 16.1 0.00 0.00 0.00 89 1015.2
20260502112734 26 104 4.8 16.1 0.00 0.00 0.00 89 1015.1
20260502112231 26 113 4.8 12.9 0.00 0.00 0.00 90 1015.1
20260502111728 25 68 3.2 11.3 0.00 0.00 0.00 90 1015.3
20260502111226 25 145 6.4 9.7 0.00 0.00 0.00 90 1015.0
20260502110723 25 141 4.8 12.9 0.00 0.00 0.00 91 1015.0
20260502110220 25 107 4.8 8.0 0.00 0.00 0.00 91 1014.9
20260502105718 25 139 3.2 9.7 0.00 0.00 0.00 91 1014.8
20260502105214 25 122 4.8 8.0 0.00 0.00 0.00 91 1014.6
20260502104712 24 103 3.2 11.3 0.00 0.00 0.00 91 1014.5
20260502104209 24 118 4.8 9.7 0.00 0.00 0.00 91 1014.6
20260502103707 24 100 11.3 12.9 0.00 0.00 0.00 91 1014.6
20260502103205 24 110 4.8 8.0 0.00 0.00 0.00 91 1014.7
20260502102701 24 104 6.4 8.0 0.00 0.00 0.00 91 1014.5
20260502102158 24 124 8.0 9.7 0.00 0.00 0.00 91 1014.7
20260502101656 24 136 6.4 8.0 0.00 0.00 0.00 91 1014.6
20260502101154 24 119 6.4 9.7 0.00 0.00 0.00 91 1014.6
20260502100652 24 114 3.2 8.0 0.00 0.00 0.00 91 1014.6
20260502100150 24 120 6.4 11.3 0.00 0.00 0.00 91 1014.7
20260502091124 24 72 3.2 9.7 0.00 0.00 0.00 91 1014.3
20260502090621 24 120 6.4 12.9 0.00 0.00 0.00 91 1014.2
20260502090118 24 93 3.2 9.7 0.00 0.00 0.00 91 1014.1
20260502071516 24 110 6.4 8.0 0.00 0.00 0.00 91 1014.2
20260502071014 24 101 9.7 9.7 0.00 0.00 0.00 90 1014.1
20260502070511 24 112 8.0 9.7 0.00 0.00 0.00 90 1014.1
20260502070009 24 101 8.0 9.7 0.00 0.00 0.00 90 1014.0
20260502065508 24 121 4.8 9.7 0.00 0.00 0.00 90 1014.1
20260502065005 24 105 8.0 11.3 0.00 0.00 0.00 90 1013.9
20260502064503 24 124 6.4 9.7 0.00 0.00 0.00 90 1013.9
20260502064000 24 109 6.4 9.7 0.00 0.00 0.00 90 1013.9
20260502063458 24 110 6.4 9.7 0.00 0.00 0.00 90 1013.8
20260502062955 24 80 3.2 9.7 0.00 0.00 0.00 90 1014.1
20260502062452 24 117 4.8 9.7 0.00 0.00 0.00 90 1014.0
20260502061951 24 127 9.7 9.7 0.00 0.00 0.00 90 1014.1
20260502061449 24 123 4.8 11.3 0.00 0.00 0.00 90 1014.0
20260502060944 24 120 6.4 9.7 0.00 0.00 0.00 90 1014.0
20260502060439 24 137 6.4 9.7 0.00 0.00 0.00 90 1014.1
20260502055937 24 132 9.7 9.7 0.00 0.00 0.00 90 1014.1
20260502055435 24 78 6.4 9.7 0.00 0.00 0.00 90 1014.3
20260502054934 24 97 6.4 8.0 0.00 0.00 0.00 89 1014.2
20260502054432 24 126 8.0 9.7 0.00 0.00 0.00 89 1014.4
20260502053929 24 116 4.8 14.5 0.00 0.00 0.00 89 1014.3
20260502053426 24 111 4.8 8.0 0.00 0.00 0.00 89 1014.4
20260502052924 24 77 3.2 8.0 0.00 0.00 0.00 89 1014.5
20260502052422 24 113 4.8 8.0 0.00 0.00 0.00 89 1014.7
20260502051920 24 107 4.8 9.7 0.00 0.00 0.00 89 1014.6
20260502051418 24 93 3.2 11.3 0.00 0.00 0.00 89 1014.6
20260502050914 24 87 3.2 6.4 0.00 0.00 0.00 89 1014.8
20260502050410 24 152 6.4 9.7 0.00 0.00 0.00 89 1014.8
20260502045908 24 93 3.2 8.0 0.00 0.00 0.00 89 1014.8
20260502045405 24 119 4.8 8.0 0.00 0.00 0.00 89 1015.0
20260502044902 24 116 6.4 12.9 0.00 0.00 0.00 89 1015.0
20260502044357 24 102 3.2 8.0 0.00 0.00 0.00 89 1015.1
20260502043855 24 138 6.4 8.0 0.00 0.00 0.00 89 1015.0
20260502043352 25 115 6.4 9.7 0.00 0.00 0.00 89 1014.9
20260502042851 25 94 3.2 8.0 0.00 0.00 0.00 88 1015.0
20260502042349 25 88 4.8 9.7 0.00 0.00 0.00 88 1015.0
20260502041846 25 130 4.8 8.0 0.00 0.00 0.00 88 1015.0
20260502041343 25 111 8.0 9.7 0.00 0.00 0.00 88 1014.9
20260502040841 25 118 4.8 9.7 0.00 0.00 0.00 88 1015.0
20260502040337 25 94 6.4 12.9 0.00 0.00 0.00 88 1015.2
20260502035833 25 108 9.7 11.3 0.00 0.00 0.00 88 1015.1
20260502035330 25 116 9.7 14.5 0.00 0.00 0.00 88 1014.9
20260502034828 25 104 9.7 11.3 0.00 0.00 0.00 88 1014.9
20260502034326 25 95 3.2 9.7 0.00 0.00 0.00 88 1015.0